Miscellaneous Local Product
Issued by NWS Hastings, NE

Home | Current Version | Previous Version | Graphics & Text | Print | Product List | Glossary On
Versions: 1 2 3 4 5 6 7 8 9 10 11 12 13 14 15 16 17 18 19 20 21 22 23 24 25 26 27 28 29 30 31 32 33 34 35 36 37 38 39 40 41 42 43 44 45 46 47 48 49 50
000
AXUS43 KGID 250802
MISGRI

GID CWA HOURLY WEATHER ROUNDUP
NATIONAL WEATHER SERVICE HASTINGS NE
300 AM CDT MON MAY 25 2015

NOTE: "FAIR" INDICATES FEW OR NO CLOUDS BELOW 12,000 FEET WITH NO
SIGNIFICANT WEATHER AND/OR OBSTRUCTIONS TO VISIBILITY.

...SOUTH CENTRAL NEBRASKA...

CITY           SKY/WX    TMP DP  RH WIND       PRES   REMARKS
GRAND ISLAND   CLOUDY    61  59  93 SW9       29.78S
HASTINGS       MOCLDY    61  57  87 SW6       29.75F
KEARNEY        CLOUDY    55  52  88 NW6       29.75F
ORD            CLOUDY    57  56  96 CALM      29.74F
YORK           CLOUDY    59  59 100 SW7       29.78F
AURORA         PTCLDY    58  58 100 SW5       29.77F
LEXINGTON      LGT RAIN  55  53  94 NE3       29.76F
HOLDREGE       CLOUDY    54  52  92 NW3       29.75F
HEBRON         PTCLDY    59  57  93 SW5       29.79S

...NEBRASKA PANHANDLE...

CITY           SKY/WX    TMP DP  RH WIND       PRES   REMARKS
CHADRON        CLOUDY    51  49  92 SW3       29.81F
ALLIANCE       LGT RAIN  50  50 100 W7        29.78F
SCOTTSBLUFF    LGT RAIN  51  50  96 SW3       29.82F
SIDNEY         CLOUDY    49  48  97 W3        29.81F

...WESTERN AND NORTH CENTRAL NEBRASKA...

CITY           SKY/WX    TMP DP  RH WIND       PRES   REMARKS
VALENTINE      CLOUDY    58  56  93 E3        29.78F
AINSWORTH      FOG       57  57 100 CALM      29.77F VSB 1/4
ONEILL         FOG       56  56  99 CALM      29.77F VSB 1/4
BROKEN BOW     MOCLDY    53  51  93 E3        29.75F
IMPERIAL       CLOUDY    51  49  92 CALM      29.78F
NORTH PLATTE   CLOUDY    53  51  93 SW7       29.78S
MCCOOK         LGT RAIN  54  52  93 W8        29.78R

...EASTERN NEBRASKA...

CITY           SKY/WX    TMP DP  RH WIND       PRES   REMARKS
NORFOLK        FOG       57  57 100 CALM      29.75F VSB 1/4
SO SIOUX CITY  CLOUDY    61  58  90 W8        29.75S
TEKAMAH        CLOUDY    63  61  93 SW5       29.75S
COLUMBUS       MOCLDY    59  54  82 CALM      29.79F
ALBION         FOG       55  54  94 CALM      29.76F VSB 1/2
OMAHA EPPLEY   CLOUDY    63  60  90 S6        29.76F
OFFUTT AFB     CLOUDY    62  60  96 S3        29.77S
MILLARD        CLOUDY    64  60  88 CALM      29.77S
LINCOLN        CLOUDY    61  60  97 CALM      29.78F
NEBRASKA CITY  CLOUDY    61  61 100 S6        29.79F
BEATRICE       CLOUDY    62  60  95 S6        29.79F
FALLS CITY     LGT RAIN  62  60  93 SW8       29.79F

...NORTHERN KANSAS...

CITY           SKY/WX    TMP DP  RH WIND       PRES   REMARKS
GOODLAND       CLOUDY    50  49  96 S6        29.80F
HILL CITY      LGT RAIN  55  53  93 E14       29.72F
NORTON         SUNNY     54  48  82 CALM      29.74R
PHILLIPSBURG   RAIN      57  57 100 SE12      29.78R
SMITH CENTER   PTCLDY    54  52  94 SE6       29.78F
HAYS           CLOUDY    55  48  76 SE13      29.81F THUNDER
RUSSELL        TSTM      57  55  93 SE8       29.81F
CONCORDIA      CLOUDY    60  58  92 SW8       29.81R
SALINA         PTCLDY    59  55  87 S8        29.80F
TOPEKA         CLOUDY    62  60  93 SE6       29.82F



USA.gov is the U.S. government's official web portal to all federal, state and local government web resources and services.